Preview of NWS' New Version of Forecast
This preview is not operational and should not be used for support decisions.
Latest weather observations around

Little Rock, Adams Field (KLIT)

Using English Units (Switch to International System of Units)
Date/ Time (CST) Wind (mph) Vis. (mi) Weather Sky Cond. Temp (°F) Rel. Humidity Wind Chill (°F) Heat Index (°F) Pressure Precip. (in)
Air Dwpt 6 hour Altimeter (inHg) Sea level (inHg) 1 hr 3 hr 6 hr
Max Min
Feb 20 23:16 WNW 10 10 Cloudy FEW006 BKN013 OVC019 62 62     100%     30.06   0    
Feb 20 22:53 W 8 10 Cloudy SCT019 BKN026 OVC045 64 64     100%     30.06 30.06      
Feb 20 21:53 WSW 9 7 Cloudy BKN017 OVC024 66 64     93%     30.05 30.04      
Feb 20 21:36 W 9 10 Cloudy BKN017 OVC024 66 65     96%     30.03        
Feb 20 21:05 W 6 10 Cloudy BKN038 OVC049 69 67     93%     30.01        
Feb 20 20:53 S 11 7 Thunderstorms SCT029 BKN039 OVC047 69 67     93%     30 30 0 0  
Feb 20 20:34 S 14 3 Thunderstorms and Rain and Fog/Mist BKN039 BKN047 OVC065 70 66     87%     30   0    
Feb 20 19:53 SSE 13 10 Mostly Cloudy SCT070 SCT100 BKN250 74 62     66%   74 29.96 29.96      
Feb 20 18:53 SSE 10 10 Mostly Cloudy SCT060 BKN085 BKN250 74 61     64%   74 29.96 29.96      
Feb 20 17:53 SSE 9 10 Cloudy SCT060 BKN110 OVC250 75 61     62%   75 29.96 29.96      
Feb 20 16:53 S 15 10 Cloudy FEW050 BKN065 OVC250 78 60     54%   78 29.96 29.96      
Feb 20 15:53 S 13 10 Cloudy SCT050 BKN070 OVC250 78 61     56%   78 29.97 29.97      
Feb 20 14:53   10 Cloudy FEW035 BKN050 BKN120 OVC200 79 62     56%   79 29.96 29.96      
Feb 20 13:53 S 17 10 Cloudy SCT035 BKN050 BKN120 OVC200 79 63     58%   79 29.98 29.98      
Feb 20 12:53   10 Cloudy SCT035 BKN047 OVC120 77 63     62%   77 30.01 30.01      
Feb 20 12:05 S 11 10 Cloudy BKN033 BKN045 OVC060 75 64     69%   75 30.03        
Feb 20 11:53   10 Cloudy BKN029 OVC055 75 64     69%   75 30.05 30.04      
Feb 20 11:43   10 Cloudy BKN029 OVC055 74 64     71%   74 30.05        
Feb 20 11:13   10 Cloudy FEW024 BKN031 OVC065 74 64     71%   74 30.06        
Feb 20 10:53   10 Cloudy BKN024 BKN031 OVC070 73 64     73%   73 30.07 30.06      
Feb 20 09:53 SSW 11 10 Cloudy BKN024 BKN031 OVC110 71 65     81%   72 30.08 30.08      
Feb 20 08:53 S 9 10 Cloudy OVC020 69 64     84%     30.08 30.08      
Feb 20 07:53 S 13 10 Cloudy OVC020 67 63     87%     30.07 30.07      
Feb 20 06:53 SSW 9 10 Cloudy OVC020 66 62     87%     30.04 30.04      
Feb 20 05:53 S 14 10 Cloudy BKN020 OVC100 66 62     87%     30.02 30.02      
Feb 20 04:53 S 13 10 Cloudy BKN022 BKN110 OVC200 67 62     84%     30 30      
Feb 20 04:16   10 Cloudy SCT024 OVC200 66 62     87%     29.98        
Feb 20 03:53   10 Cloudy BKN024 OVC060 67 62     84%     29.98 29.98      
Feb 20 03:37   10 Cloudy BKN024 OVC060 67 62     84%     29.98        
Feb 20 02:53 SSE 14 10 Cloudy FEW055 BKN100 OVC200 67 61     81%     29.99 29.98      
Feb 20 01:53 S 11 10 Cloudy OVC055 69 60     73%     30 30      
Feb 20 00:53 S 11 10 Cloudy OVC060 69 60     73%     29.99 29.99      
Feb 19 23:53 S 13 10 Cloudy OVC065 70 60     71%     29.99 29.99      
Feb 19 22:53 S 14 10 Mostly Cloudy SCT065 BKN085 70 60     71%     29.97 29.97      
Feb 19 21:53 S 9 10 Partly Cloudy FEW070 SCT085 68 59     73%     29.98 29.97      
Feb 19 20:53 SSE 10 10 Partly Cloudy SCT250 68 59     73%     29.97 29.96      
Feb 19 19:53 SSE 11 10 Mostly Cloudy SCT080 BKN250 69 59     70%     29.96 29.96      
Feb 19 18:53 SSE 9 10 Mostly Cloudy BKN250 67 61     81%     29.96 29.96      
Feb 19 17:53 SSE 7 10 Cloudy FEW025 SCT040 OVC250 70 61     73%     29.96 29.96      
Feb 19 16:53 S 13 10 Mostly Cloudy FEW029 FEW045 BKN250 73 61     66%   73 29.95 29.96      
Feb 19 15:53   10 Mostly Cloudy FEW035 BKN250 75 59     57%   75 29.95 29.96      
Feb 19 14:53 S 17 10 Mostly Cloudy FEW032 BKN250 73 59     61%   73 29.96 29.96      
Feb 19 13:53   10 Mostly Cloudy SCT030 SCT070 BKN250 77 60     56%   77 29.96 29.96      
Feb 19 12:53 SSW 14 10 Mostly Cloudy SCT028 BKN080 BKN250 74 61     64%   74 29.98 29.98      
Feb 19 11:53   10 Cloudy BKN025 BKN090 OVC250 70 62     76%     30.02 30.02      
Feb 19 10:53 SSW 10 10 Cloudy OVC023 68 62     81%     30.05 30.05      
Feb 19 09:53 SSW 14 10 Cloudy OVC020 66 62     87%     30.04 30.05      
Feb 19 08:53 S 9 10 Cloudy OVC018 65 62     90%     30.04 30.04      
Feb 19 07:53 SSW 13 10 Cloudy OVC019 63 62     97%     30.02 30.03      
Feb 19 06:53   10 Cloudy BKN016 OVC100 62 61     96%     30 30.01      
Feb 19 05:53 S 11 7 Cloudy BKN015 OVC100 61 61     100%     30 30     0
Feb 19 05:45 S 11 7 Cloudy BKN015 OVC100 61 61     100%     29.99        
Feb 19 05:37 S 13 7 Cloudy SCT015 OVC100 60 60     100%     29.99        
Feb 19 05:12 S 10 4 Fog/Mist OVC015 59 59     100%     29.98        
Feb 19 04:53 SSE 9 3 Fog/Mist SCT006 OVC013 56 56     100%     29.99 29.99      
Feb 19 04:42 SE 5 2 Fog/Mist BKN006 OVC013 55 55     100%     29.99        
Feb 19 03:53 NE 5 0.5 Fog SCT002 OVC006 53 53     100%     30 30      
Feb 19 02:53 Calm 0.12 Fog VV002 52 52     100%     29.99 30   0  
Feb 19 02:03 Calm 0.12 Fog VV002 52 52     100%     30        
Feb 19 02:00 Calm   Fog OVC003 52 52     100%     30        
Feb 19 01:53 Calm 0.12 Fog VV002 52 52     100%     30 30.01      
Feb 19 00:53 SE 5 0.12 Fog VV002 51 51     100%     29.99 30 0    
Feb 18 23:53 ESE 6 0.25 Fog VV002 51 51     100%     30.01 30.01 0   0
Feb 18 22:53 E 3 0.5 Light Drizzle and Fog VV003 49 49     100% 48   30.02 30.03 0    
Feb 18 22:35 Calm 0.5 Fog VV003 49 49     100%     30.02        
Feb 18 21:53 Calm 0.25 Fog VV002 49 49     100%     30.03 30.04      
Feb 18 20:53 E 3 0.12 Fog VV003 48 48     100% 47   30.04 30.05      
Feb 18 20:24 Calm 0.25 Fog OVC003 48 48     100%     30.05        
Feb 18 19:53 Calm 1.5 Fog/Mist OVC003 48 48     100%     30.04 30.05      
Feb 18 18:53 SSE 9 1.5 Fog/Mist OVC003 48 48     100% 44   30.03 30.04      
Feb 18 18:27 SSE 8 2 Fog/Mist OVC004 48 48     100% 44   30.05        
Feb 18 17:53 SE 8 1.5 Fog/Mist OVC004 48 48     100% 44   30.04 30.05 0   0
Feb 18 17:45 Calm 1.5 Fog/Mist OVC004 48 48     100%     30.06   0    
Feb 18 17:35 SSE 8 1.5 Fog/Mist OVC006 48 48     100% 44   30.06   0    
Feb 18 17:20 SE 10 2.5 Fog/Mist OVC006 48 48     100% 43   30.05   0    
Feb 18 16:53 SE 7 8 Cloudy OVC008 48 47     96% 45   30.07 30.08      
Feb 18 16:38 SE 9 7 Cloudy OVC008 48 47     96% 44   30.08        
Feb 18 15:53 SE 7 10 Cloudy OVC010 49 46     90% 46   30.09 30.1      
Feb 18 14:53 SE 7 10 Cloudy OVC010 48 45     89% 45   30.1 30.11      
Feb 18 13:53 SE 7 7 Cloudy OVC012 46 44     93% 42   30.13 30.14      
Feb 18 13:19 SE 9 7 Cloudy OVC014 47 44     90% 43   30.15        
Feb 18 12:53 SSE 9 10 Cloudy OVC017 47 42     83% 43   30.16 30.17      
Feb 18 11:53 ESE 9 10 Cloudy OVC016 48 42     80% 44   30.2 30.21      
Feb 18 10:53 SE 15 10 Cloudy BKN016 OVC065 48 41     77% 42   30.23 30.24      
Feb 18 10:34 ESE 13 10 Cloudy BKN016 OVC065 46 42     86% 40   30.24        
Feb 18 10:14 ESE 15 10 Cloudy BKN013 BKN018 OVC065 45 42     90% 38   30.24        
Feb 18 09:53 ESE 11 10 Cloudy OVC009 44 43     96% 38   30.25 30.26      
Feb 18 08:53 E 11 10 Mostly Cloudy BKN008 41 41     100% 34   30.26 30.27      
Feb 18 08:39 E 11 6 Fog/Mist BKN005 OVC008 40 40     100% 33   30.26        
Feb 18 08:30 E 8 3 Fog/Mist OVC004 41 41     100% 36   30.27        
Feb 18 08:23 E 7 2 Fog/Mist OVC003 40 40     100% 35   30.27        
Feb 18 08:09 E 8 0.5 Fog VV002 39 39     100% 33   30.27        
Feb 18 07:53 E 8 0.06 Fog VV001 39 39     100% 33   30.27 30.28      
Feb 18 06:53 NE 7 0.06 Fog VV001 34 34     100% 28   30.27 30.27      
Feb 18 05:53 NE 3 0.06 Fog VV001 34 34     100% 31   30.27 30.28      
Feb 18 05:22 ENE 3 0.06 Fog VV001 35 35     100% 32   30.27        
Feb 18 04:53 Calm 0.25 Fog VV001 34 34     100%     30.27 30.28      
Feb 18 03:53 ENE 3 0.06 Fog VV001 35 35     100% 32   30.26 30.27      
Feb 18 02:53 Calm 0.06 Fog VV001 34 34     100%     30.26 30.27      
Feb 18 02:09 Calm 0.12 Fog VV001 34 34     100%     30.26        
Feb 18 01:53 Calm 0.5 Fog SKC BKN250 34 34     100%     30.27 30.28      
Feb 18 01:16 Calm 0.5 Fog SKC BKN250 34 34     100%     30.26        
Feb 18 00:58 Calm 0.12 Fog VV001 36 36     100%     30.26        
Feb 18 00:53 Calm 0.25 Fog SKC BKN250 35 35     100%     30.26 30.27      
Feb 18 00:51 Calm 0.25 Fog SKC BKN250 36 36     100%     30.26        
Feb 18 00:42 Calm 1 Fog/Mist and Fog SCT250 36 36     100%     30.26        
Feb 17 23:53 Calm 7 Fog SCT250 37 37     100%     30.26 30.27      
Feb 17 23:15 Calm 10 Partly Cloudy FEW002 SCT250 37 37     100%     30.26        
Feb 17 22:59 Calm 10 Mostly Clear FEW002 38 38     100%     30.26        
Feb 17 22:53 Calm 10 Partly Cloudy SCT250 39 39     100%     30.26 30.27      
Jun 12 06:38 SSE 5 1 Light Drizzle and Fog/Mist SKC OVC005 71 71     100%   73 30.04   0    
Jun 12 03:28 S 6 10 Mostly Cloudy BKN013 72 70     93%   73 30        
Jun 11 18:53 S 10 10 Mostly Clear FEW050 86 67     53%   89 29.96 29.95      
Jun 11 15:53 S 10 10 Partly Cloudy SCT050 87 66     50%   89 29.99 29.99      
Jun 11 13:53 S 11 10 Partly Cloudy SCT050 87 64     46%   88 30.03 30.02      
Jun 11 08:53 S 6 10 Partly Cloudy SCT065 76 69     79%   77 30.04 30.03      
Jun 09 18:53 S 6 10 Mostly Cloudy FEW030 BKN250 78 57     48%   78 29.91 29.91      
Jun 09 14:53   10 Mostly Cloudy FEW060 BKN250 82 53     37%   81 29.95 29.95      
Jun 09 04:53 WSW 3 10 Clear CLR 59 59     100%     29.93 29.93      
Jun 06 12:53 ENE 13 10 Partly Cloudy SCT030 86 69     57%   90 29.82 29.82      
Jun 06 11:53 NE 11 10 Partly Cloudy SCT026 85 72     65%   91 29.83 29.82      
Jun 06 09:53 NE 10 10 Partly Cloudy FEW015 SCT250 80 73     79%   84 29.84 29.84      
Jun 05 13:53 E 5 7 Mostly Cloudy FEW015 BKN025 BKN250 77 71     82%   78 29.77 29.76 0